Weather History for Metropolis, IL

Change the Weather History Date:

Saturday, May 18, 2013

  Actual Average (KPAH) Record (KPAH)
Temperature  
Mean Temperature 74 °F 68 °F  
Max Temperature 82 °F 79 °F 92 °F (1951)
Min Temperature 65 °F 57 °F 39 °F (2002)
Degree Days  
Heating Degree Days 0 2  
Month to date heating degree days 50  
Since 1 July heating degree days 4114  
Cooling Degree Days 8 5  
Month to date cooling degree days 55  
Year to date cooling degree days 97  
Growing Degree Days 24 (Base 50)    
Moisture  
Dew Point 65 °F    
Average Humidity 78    
Maximum Humidity 99    
Minimum Humidity 51    
Precipitation  
Precipitation 0.00 in 0.15 in 2.30 in (1981)
Month to date precipitation 3.06  
Year to date precipitation 19.34  
Snow  
Snow 0.00 in 0.00 in 0.00 in (2002)
Month to date snowfall 0.0  
Since 1 July snowfall 9.1  
Snow Depth -    
Sea Level Pressure  
Sea Level Pressure 29.96 in    
Wind  
Wind Speed 1 mph (South)    
Max Wind Speed 7 mph    
Max Gust Speed -    
Visibility 9 miles    
Events      
T = Trace of Precipitation, MM = Missing Value Source: NWS Daily Summary

Daily Weather History Graph

Daily Weather History Graph

Search for Another Location

Airport:

Trip Planner

Search our weather history database for the weather conditions in past years. The results will help you decide how hot, cold, wet, or windy it might be!

Date:

Astronomy

May. 18, 2013 Rise Set
Actual Time 5:43 AM CDT 7:59 PM CDT
Civil Twilight 5:14 AM CDT 8:28 PM CDT
Nautical Twilight 4:38 AM CDT 9:04 PM CDT
Astronomical Twilight 3:59 AM CDT 9:44 PM CDT
Moon 1:11 PM CDT (5/18) 1:26 AM CDT (5/18)
Length of Visible Light 15h 14m
Length of Day
14h 15m
First Quarter, 55% of the Moon is Illuminated
May 18
First Quarter
May 24
Full
May 31
Last Quarter
Jun 8
New
Jun 16
First Quarter

Hourly Weather History & Observations

Time (CDT) Temp. Heat Index Dew Point Humidity Pressure Visibility Wind Dir Wind Speed Gust Speed Precip Events Conditions
12:15 AM 65.5 °F - 64.8 °F 98% 29.96 in 10.0 mi Calm Calm - N/A   Mostly Cloudy
12:35 AM 65.3 °F - 64.9 °F 99% 29.96 in 7.0 mi Calm Calm - N/A   Overcast
12:55 AM 65.7 °F - 65.3 °F 99% 29.96 in 10.0 mi Calm Calm - N/A   Overcast
1:15 AM 65.7 °F - 65.3 °F 99% 29.96 in 10.0 mi Calm Calm - N/A   Overcast
1:35 AM 65.8 °F - 65.3 °F 98% 29.96 in 10.0 mi Calm Calm - N/A   Overcast
1:55 AM 65.8 °F - 65.5 °F 99% 29.95 in 7.0 mi Calm Calm - N/A   Overcast
2:15 AM 65.5 °F - 65.3 °F 99% 29.95 in 7.0 mi NNW 3.5 mph - N/A   Overcast
2:35 AM 65.7 °F - 65.3 °F 99% 29.95 in 10.0 mi Calm Calm - N/A   Overcast
2:55 AM 65.8 °F - 65.3 °F 98% 29.95 in 10.0 mi NNW 3.5 mph - N/A   Overcast
3:15 AM 65.8 °F - 65.3 °F 98% 29.96 in 10.0 mi NNW 3.5 mph - N/A   Overcast
3:35 AM 66.0 °F - 65.3 °F 98% 29.96 in 10.0 mi Calm Calm - N/A   Overcast
3:55 AM 65.8 °F - 65.5 °F 99% 29.96 in 7.0 mi Calm Calm - N/A   Overcast
4:15 AM 65.8 °F - 65.7 °F 99% 29.96 in 7.0 mi Calm Calm - N/A   Overcast
4:35 AM 66.2 °F - 65.7 °F 98% 29.97 in 7.0 mi Calm Calm - N/A   Overcast
4:55 AM 66.2 °F - 65.7 °F 98% 29.97 in 7.0 mi Calm Calm - N/A   Overcast
5:15 AM 66.2 °F - 65.7 °F 98% 29.97 in 7.0 mi Calm Calm - N/A   Overcast
5:35 AM 65.8 °F - 65.5 °F 99% 29.97 in 7.0 mi Calm Calm - N/A   Overcast
5:55 AM 66.2 °F - 65.8 °F 99% 29.97 in 5.0 mi Calm Calm - N/A   Overcast
6:15 AM 66.4 °F - 66.2 °F 99% 29.97 in 5.0 mi Calm Calm - N/A   Overcast
6:35 AM 66.6 °F - 66.2 °F 99% 29.98 in 5.0 mi Calm Calm - N/A   Scattered Clouds
6:55 AM 66.9 °F - 66.2 °F 98% 29.98 in 5.0 mi Calm Calm - N/A   Mostly Cloudy
7:15 AM 67.1 °F - 66.4 °F 98% 29.99 in 5.0 mi ENE 3.5 mph - N/A   Overcast
7:35 AM 67.3 °F - 66.4 °F 97% 29.99 in 5.0 mi Calm Calm - N/A   Overcast
7:55 AM 67.6 °F - 66.2 °F 95% 30.01 in 7.0 mi Calm Calm - N/A   Overcast
8:15 AM 68.5 °F - 66.6 °F 93% 30.01 in 7.0 mi Calm Calm - N/A   Overcast
8:35 AM 69.8 °F - 66.2 °F 88% 30.01 in 10.0 mi Calm Calm - N/A   Overcast
8:55 AM 70.0 °F - 65.8 °F 87% 30.01 in 10.0 mi Calm Calm - N/A   Overcast
9:15 AM 70.2 °F - 65.8 °F 86% 30.01 in 10.0 mi Calm Calm - N/A   Overcast
9:35 AM 70.9 °F - 66.6 °F 86% 30.01 in 10.0 mi Calm Calm - N/A   Overcast
9:55 AM 72.3 °F - 66.4 °F 82% 30.01 in 10.0 mi SE 3.5 mph - N/A   Overcast
10:15 AM 72.5 °F - 64.6 °F 76% 30.01 in 10.0 mi SW 3.5 mph - N/A   Overcast
10:35 AM 73.9 °F - 65.3 °F 74% 30.01 in 10.0 mi SW 4.6 mph - N/A   Overcast
10:55 AM 73.2 °F - 65.1 °F 76% 30.00 in 10.0 mi SSW 3.5 mph - N/A   Overcast
11:15 AM 73.4 °F - 64.9 °F 75% 30.00 in 10.0 mi South 3.5 mph - N/A   Scattered Clouds
11:35 AM 75.4 °F - 64.9 °F 70% 30.00 in 10.0 mi SSE 3.5 mph - N/A   Mostly Cloudy
11:55 AM 74.7 °F - 64.2 °F 70% 30.00 in 10.0 mi Calm Calm - N/A   Mostly Cloudy
12:15 PM 76.6 °F - 64.0 °F 65% 29.99 in 10.0 mi Calm Calm - N/A   Scattered Clouds
12:35 PM 76.8 °F - 62.6 °F 61% 29.98 in 10.0 mi Calm Calm - N/A   Overcast
12:55 PM 78.3 °F - 63.3 °F 60% 29.98 in 10.0 mi Calm Calm - N/A   Overcast
1:15 PM 78.6 °F - 63.1 °F 59% 29.97 in 10.0 mi SE 3.5 mph - N/A   Overcast
1:35 PM 80.1 °F 81.5 °F 63.1 °F 56% 29.97 in 10.0 mi SSW 6.9 mph - N/A   Scattered Clouds
1:55 PM 80.2 °F 81.6 °F 63.1 °F 56% 29.97 in 10.0 mi WSW 6.9 mph - N/A   Scattered Clouds
2:15 PM 80.8 °F 82.0 °F 62.8 °F 54% 29.96 in 10.0 mi WSW 4.6 mph - N/A   Clear
2:35 PM 81.1 °F 82.3 °F 62.6 °F 53% 29.96 in 10.0 mi Calm Calm - N/A   Scattered Clouds
2:55 PM 81.7 °F 82.7 °F 62.6 °F 52% 29.95 in 10.0 mi South 4.6 mph - N/A   Clear
3:15 PM 82.0 °F 83.0 °F 62.2 °F 51% 29.95 in 10.0 mi West 3.5 mph - N/A   Clear
3:35 PM 82.2 °F 83.3 °F 63.0 °F 52% 29.95 in 10.0 mi Calm Calm - N/A   Clear
3:55 PM 82.0 °F 83.6 °F 64.2 °F 55% 29.94 in 10.0 mi South 4.6 mph - N/A   Clear
4:15 PM 81.1 °F 82.7 °F 63.9 °F 56% 29.94 in 10.0 mi Calm Calm - N/A   Mostly Cloudy
4:35 PM 82.8 °F 84.3 °F 64.8 °F 54% 29.94 in 10.0 mi SSE 5.8 mph - N/A   Scattered Clouds
4:55 PM 81.9 °F 83.4 °F 64.2 °F 55% 29.94 in 10.0 mi South 4.6 mph - N/A   Scattered Clouds
5:15 PM 81.5 °F 82.8 °F 63.3 °F 54% 29.94 in 10.0 mi South 3.5 mph - N/A   Scattered Clouds
5:35 PM 81.7 °F 83.2 °F 64.0 °F 55% 29.94 in 10.0 mi Calm Calm - N/A   Scattered Clouds
5:55 PM 80.8 °F 82.4 °F 64.4 °F 57% 29.94 in 10.0 mi Calm Calm - N/A   Mostly Cloudy
6:15 PM 81.3 °F 82.9 °F 64.0 °F 56% 29.94 in 10.0 mi Calm Calm - N/A   Mostly Cloudy
6:35 PM 80.8 °F 82.5 °F 64.9 °F 58% 29.94 in 10.0 mi Calm Calm - N/A   Clear
6:55 PM 80.2 °F 82.0 °F 64.9 °F 59% 29.93 in 10.0 mi Calm Calm - N/A   Clear
7:15 PM 79.3 °F - 64.8 °F 61% 29.93 in 10.0 mi ESE 3.5 mph - N/A   Clear
7:35 PM 78.4 °F - 65.1 °F 63% 29.93 in 10.0 mi Calm Calm - N/A   Clear
7:55 PM 76.6 °F - 65.3 °F 68% 29.93 in 10.0 mi Calm Calm - N/A   Clear
8:15 PM 74.7 °F - 65.5 °F 73% 29.94 in 10.0 mi Calm Calm - N/A   Clear
8:35 PM 73.0 °F - 65.5 °F 77% 29.94 in 10.0 mi Calm Calm - N/A   Clear
8:55 PM 72.3 °F - 65.5 °F 79% 29.94 in 10.0 mi Calm Calm - N/A   Scattered Clouds
9:15 PM 71.8 °F - 65.8 °F 81% 29.94 in 10.0 mi Calm Calm - N/A   Mostly Cloudy
9:35 PM 73.4 °F - 65.1 °F 75% 29.94 in 10.0 mi Calm Calm - N/A   Overcast
9:55 PM 72.9 °F - 64.8 °F 76% 29.94 in 10.0 mi Calm Calm - N/A   Mostly Cloudy
10:15 PM 72.5 °F - 64.6 °F 76% 29.94 in 10.0 mi ESE 3.5 mph - N/A   Mostly Cloudy
10:35 PM 72.5 °F - 65.1 °F 78% 29.94 in 10.0 mi Calm Calm - N/A   Mostly Cloudy
10:55 PM 72.3 °F - 65.3 °F 78% 29.93 in 10.0 mi Calm Calm - N/A   Mostly Cloudy
11:15 PM 72.5 °F - 65.3 °F 78% 29.92 in 10.0 mi ESE 3.5 mph - N/A   Overcast
11:35 PM 72.3 °F - 65.3 °F 78% 29.94 in 10.0 mi Calm Calm - N/A   Mostly Cloudy
11:55 PM 72.1 °F - 65.3 °F 79% 29.93 in 10.0 mi East 3.5 mph - N/A   Mostly Cloudy